Regional Weather Roundup
Issued by NWS Charleston, SC

Current Version | Previous Version | Graphics & Text | Print | Product List | Glossary On
Versions: 1 2 3 4 5 6 7 8 9 10 11 12 13 14 15 16 17 18 19 20 21 22 23 24 25 26 27 28 29 30 31 32 33 34 35 36 37 38 39 40 41 42 43 44 45 46 47 48 49 50
000
ASUS42 KCHS 192125
RWRCHS

REGIONAL WEATHER ROUNDUP
NATIONAL WEATHER SERVICE CHARLESTON SC
500 PM EDT SAT APR 19 2014

NOTE: "FAIR" INDICATES FEW OR NO CLOUDS BELOW 12,000 FEET WITH NO
SIGNIFICANT WEATHER AND/OR OBSTRUCTIONS TO VISIBILITY.

NOT ALL STATIONS ARE QUALITY CONTROLLED BY THE NATIONAL
WEATHER SERVICE. USE DATA WITH CAUTION...ESPECIALLY
DEWPOINT OBSERVATIONS.

SCZ027-030-031-034>040-042>050-192200-
...SOUTH CAROLINA...

CITY           SKY/WX    TMP DP  RH WIND       PRES   REMARKS
N CHARLESTON   CLOUDY    61  55  81 NE14      29.98S
WATERFRONT PRK   N/A     61 N/A N/A N16         N/A
FORT JOHNSON     N/A     61  59  94 NE10G18   30.01S
MOUNT PLEASANT CLOUDY   N/A N/A N/A N5        29.97F
JOHNS ISLAND   CLOUDY    61  61 100 N12       29.97S
PINOPOLIS        N/A     57  54  88 NE14      29.93R
MONCKS CORNER  DRIZZLE   59  57  94 NE9G16    30.00S
SUMMERVILLE    NOT AVBL
BEAUFORT MCAS  CLOUDY    60  56  86 E12       29.97R
BEAUFORT ARPT  CLOUDY    61  59  94 N16       29.96S
HILTON HEAD IS CLOUDY    61  59  94 N14G20    29.95S FOG
GEORGETOWN     NOT AVBL
WALTERBORO     CLOUDY    55 N/A N/A N6        30.01R
ORANGEBURG     LGT RAIN  56  53  90 NE13      30.03R FOG
BARNWELL       CLOUDY    59  54  82 NE15G24   30.02R
AIKEN          CLOUDY    55  55 100 N15G22    30.08R
MANNING        CLOUDY    57 N/A N/A NE12G23   30.03R
KINGSTREE      NOT AVBL
COLUMBIA       LGT RAIN  57  55  93 NE13G20   30.07R FOG
SUMTER         DRIZZLE   54  54 100 NE18G25   30.05R FOG
FLORENCE       LGT RAIN  54  51  90 NE15      30.07R FOG
MYRTLE BEACH   CLOUDY    57  54  88 NE16      30.02R
N MYRTLE BEACH CLOUDY    58  53  84 NE20G26   30.01R

$$

GAZ063-065-086>088-099>101-113>116-118-119-134-136>141-150-192200-
...GEORGIA...

CITY           SKY/WX    TMP DP  RH WIND       PRES   REMARKS
SAVANNAH ARPT  CLOUDY    61  57  87 N10       29.96R
HUNTER AAF     CLOUDY    63  59  88 NE9       29.93R
FORT STEWART   DRIZZLE   61  61 100 N8        29.93R
STATESBORO     NOT AVBL
SYLVANIA       CLOUDY    60  56  87 NE9G16    30.00R
CLAXTON        CLOUDY    61  61 100 N6        29.98R
THOMSON        CLOUDY    55  55 100 N8G16     30.11R
AUGUSTA-BUSH   CLOUDY    58  52  80 NE18G24   30.04R
AUGUSTA-DANIEL CLOUDY    58  53  84 N9G21     30.04R
SWAINSBORO     CLOUDY    55  55 100 NE7       30.02R
VIDALIA        CLOUDY    59  55  88 N8        29.99R
ALMA           CLOUDY    59  56  89 N9        29.95F
WAYCROSS       NOT AVBL
JESUP          TSTM      59  59 100 N9        29.95R
BRUNSWICK      CLOUDY    63  63 100 NE6       29.94R
SAINT SIMONS   LGT RAIN  63  61  93 NE14G24   29.92R FOG

$$

SCZ027-028-034-036>038-045-046-048>050-GAZ119-141-192200-
...LAKE AND SUPPLEMENTAL COASTAL OBSERVATIONS...

STATION/POSITION TIME  TEMP    WIND        PRES    WAVE   SWELL
                       AIR SEA DIR/SP/G            HT/PER HT/PER/DIR
                 (UTC) (F)     (DEG/KT/KT) (MB)    (FT/S) (FT/S/D)
UPR LAKE MARION  NOT AVBL
WINYAH BAY       2100   59      20/  9     1015.0S
LAKE MURRAY      2100   54      20/  3/  8 1018.3R
ACE BASIN NERRS  2100   60      20/  5     1014.0S
FORT PULASKI     2100   61 59   10/ 16/ 20 1013.8F
SAPELO ISLAND    2100   62      30/  9     1013.0S

$$

ANZ835-935-AMZ111-154-330-350-352-354-374-450-454-472-192200-
...C-MAN AND BUOY OBSERVATIONS...

STATION/POSITION TIME  TEMP    WIND        PRES    WAVE   SWELL
                       AIR SEA DIR/SP/G            HT/PER HT/PER/DIR
                 (UTC) (F)     (DEG/KT/KT) (MB)    (FT/S) (FT/S/D)
FOLLY BEACH CMAN 2100   61      20/ 17/ 20 1014.8F
BUOY 41004       NOT AVBL
BUOY 41008       2100   63 64   40/ 21/ 25 1012.2R   6/ 5   2/ 90/10
5E ST. MARYS GA  2100      66                N/A     4/ 7   2/ 70/12
FRYING PAN BUOY  2100   63 65   40/ 27/ 35 1012.7S  10/ 7
BUOY 41025       NOT AVBL
CAPE LOOKOUT NC  2100   57      20/ 28/ 33 1017.1F
BUOY 41002       NOT AVBL
BUOY 41010       2100   76 76  170/ 12/ 14 1012.0F   8/ 7   7/170/ 7
BUOY 41012       NOT AVBL
ST AUGUSTINE FL  2100   72     260/ 12/ 15 1012.2R
CAPERS NEARSHORE NOT AVBL
FRIPP NEARSHORE  2000   62      40/ 14/ 17   N/A


$$



USA.gov is the U.S. government's official web portal to all federal, state and local government web resources and services.